Location: Ch�teau-Arnoux
(44.0814°N, 6.0027°E)
Time: 01:57:20
(UTC+00:00)

CZ-4B DEB - Pass Details

Date: 15 November 2019
Orbit: 840 x 862 km, 99.1° (Epoch: 07 December)

Event Time Altitude Azimuth Distance (km) Brightness Sun altitude
Rises 04:45:19 0° 16° (NNE) 3,407 7.5 -18.9°
Reaches altitude 10° 04:47:42 10° 19° (NNE) 2,469 6.7 -18.5°
Maximum altitude 04:53:10 71° 103° (ESE) 891 4.5 -17.5°
Drops below altitude 10° 04:58:37 10° 188° (S) 2,462 6.6 -16.5°
Sets 05:00:59 0° 190° (S) 3,396 7.4 -16.1°
